Location: Cz?stochówka
(50.8142°N, 19.0915°E)
Time: 14:28:18
(UTC+00:00)

Cosmos 2184 Rocket - Pass Details

Date: 13 January 2026
Orbit: 959 x 1001 km, 82.9° (Epoch: 18 February)

Event Time Altitude Azimuth Distance (km) Brightness Sun altitude
Rises 04:24:57 0° 181° (S) 3,658 7.1 -20.7°
Reaches altitude 10° 04:27:27 10° 179° (S) 2,709 6.4 -20.3°
Maximum altitude 04:33:37 74° 96° (E) 1,007 4.2 -19.4°
Drops below altitude 10° 04:39:48 10° 13° (NNE) 2,707 6.3 -18.4°
Sets 04:42:18 0° 12° (NNE) 3,656 7.0 -18.0°
